Torna al catalogo

SL-16 DEB

AttivoLEO
NORAD 22606·DEBRIS·🇷🇺 Russia

Lanciato Mar 26, 1993 da Baikonur Cosmodrome

Loading…

Prossimi Passaggi (prossime 24 ore)

TLE

AggiornatoSource: Space-Track

Epoca: Sep 14, 2026, 15:41 UTC

1 22606U 93016Q   26257.65357882  .00000202  00000-0  18607-3 0  9990
2 22606  71.0027 336.1627 0145146  35.7182 115.1137 13.89263057691717

Traccia SL-16 DEB in tempo reale con AllMySat

Download on the App Store